Regional Weather Roundup
Issued by NWS

Home | Current Version | Previous Version | Text Only | Print | Product List | Glossary On
Versions: 1 2 3 4 5 6 7 8 9 10 11 12 13 14 15 16 17 18 19 20 21 22 23 24 25 26 27 28 29 30 31 32 33 34 35 36 37 38 39 40 41 42 43 44 45 46 47 48 49 50
000
ASCA42 TJSJ 292111
RWRPR
PUERTO RICO/U.S. VIRGIN ISLANDS HOURLY WEATHER ROUNDUP
NATIONAL WEATHER SERVICE SAN JUAN PR
500 PM AST TUE JUL 29 2014

PRZ001-004-292200-
PUERTO RICO

CITY           SKY/WX    TMP DP  RH WIND       PRES   REMARKS
SAN JUAN LMM   MOSUNNY   84  75  74 NE14      30.00R HX  92
MAYAGUEZ       MOSUNNY   90  70  51 E5        30.01F HX  95
AGUADILLA      MOSUNNY   79  73  83 NE6       30.02S
CEIBA          CLOUDY    75  72  88 NW7       30.04S
$$

PRZ006-007-292200-
U.S. VIRGIN ISLANDS

CITY           SKY/WX    TMP DP  RH WIND       PRES   REMARKS
CHARLOTTE AMA  SUNNY     86  75  70 S10       30.00S HX  95
CHRISTIANSTED  MOSUNNY   86  73  66 SE10      30.01S HX  93
$$

HOURLY WEATHER ROUNDUP FOR THE NEWS MEDIA

CITY           SKY/WX    TMP DP  RH WIND       PRES   REMARKS
MIAMI          PTSUNNY   91  73  55 SE8       29.97F HX  99
ORLANDO        TSTM      80  74  81 NW9       29.93R
NEW YORK       PTSUNNY   78  46  32 NW8       29.90R
NEWARK         PTSUNNY   76  49  38 W10G20    29.90R
CHICAGO        PTSUNNY   78  51  38 NW13      30.00F
HARTFORD       SUNNY     76  59  55 S15       29.86R
BOSTON         PTSUNNY   72  59  63 SE7       29.85R
DALLAS         CLOUDY    81  62  52 NW3       30.11F
PHILADELPHIA   CLOUDY    75  53  46 W8        29.92S


USA.gov is the U.S. government's official web portal to all federal, state and local government web resources and services.